Sanford, FL

10:20 PM EDT on August 30, 2016 (GMT -0400)
Orlando Sanford

Weather History for KSFB - January, 2013

Change the Weather History Date:

Sunday, January 27, 2013

  Actual Average Record
Temperature  
Mean Temperature 63 °F -  
Max Temperature 75 °F 69 °F 85 °F (1962)
Min Temperature 51 °F 46 °F 28 °F (1985)
Degree Days  
Heating Degree Days 2    
Growing Degree Days 13 (Base 50)    
Moisture  
Dew Point 56 °F    
Average Humidity 80    
Maximum Humidity 100    
Minimum Humidity 48    
Precipitation  
Precipitation 0.00 in - - ()
Sea Level Pressure  
Sea Level Pressure 30.30 in    
Wind  
Wind Speed 3 mph (ENE)    
Max Wind Speed 15 mph    
Max Gust Speed -    
Visibility 7 miles    
Events Fog    
Averages and records for this station are not official NWS values.
T = Trace of Precipitation, MM = Missing Value Source: NWS Daily Summary

Daily Weather History Graph

Daily Weather History Graph

Search for Another Location

Airport or City:

Trip Planner

Search our weather history database for the weather conditions in past years. The results will help you decide how hot, cold, wet, or windy it might be!

Date:

Astronomy

Jan. 27, 2013 Rise Set
Actual Time 7:15 AM EST 6:00 PM EST
Civil Twilight 6:50 AM EST 6:25 PM EST
Nautical Twilight 6:22 AM EST 6:53 PM EST
Astronomical Twilight 5:54 AM EST 7:21 PM EST
Moon 6:44 PM EST (1/27) 7:14 AM EST (1/27)
Length of Visible Light 11h 34m
Length of Day
10h 44m
Full, 100% of the Moon is Illuminated
Jan 27
Full
Feb 3
Last Quarter
Feb 10
New
Feb 17
First Quarter
Feb 25
Full

Hourly Weather History & Observations

Time (EST) Temp. Dew Point Humidity Pressure Visibility Wind Dir Wind Speed Gust Speed Precip Events Conditions
12:53 AM 54.0 °F 50.0 °F 86% 30.25 in 9.0 mi West 4.6 mph - N/A   Clear
1:53 AM 55.9 °F 53.1 °F 90% 30.26 in 10.0 mi WNW 3.5 mph - N/A   Clear
2:53 AM 55.9 °F 53.1 °F 90% 30.26 in 10.0 mi Calm Calm - N/A   Clear
4:53 AM 55.9 °F 54.0 °F 93% 30.26 in 7.0 mi Calm Calm - N/A   Clear
5:53 AM 55.0 °F 53.1 °F 93% 30.27 in 4.0 mi Calm Calm - N/A   Clear
6:34 AM 53.6 °F 51.8 °F 94% 30.28 in 0.8 mi Calm Calm - N/A   Clear
6:53 AM 51.1 °F 50.0 °F 96% 30.28 in 0.5 mi NNW 3.5 mph - N/A Fog Fog
7:04 AM 53.6 °F 51.8 °F 94% 30.28 in 2.0 mi Calm Calm - N/A   Clear
7:46 AM 51.8 °F 51.8 °F 100% 30.29 in 3.0 mi Calm Calm - N/A   Partly Cloudy
7:53 AM 52.0 °F 51.1 °F 97% 30.30 in 4.0 mi Calm Calm - N/A   Partly Cloudy
7:59 AM 53.6 °F 51.8 °F 94% 30.29 in 2.0 mi Calm Calm - N/A   Mostly Cloudy
8:19 AM 55.4 °F 55.4 °F 100% 30.30 in 0.2 mi Calm Calm - N/A Fog Fog
8:53 AM 57.0 °F 55.9 °F 96% 30.31 in 0.2 mi Calm Calm - N/A Fog Fog
9:07 AM 59.0 °F 57.2 °F 94% 30.32 in 1.2 mi Calm Calm - N/A   Mostly Cloudy
9:10 AM 59.0 °F 57.2 °F 94% 30.32 in 3.0 mi Calm Calm - N/A   Mostly Cloudy
9:24 AM 62.6 °F 57.2 °F 82% 30.32 in 8.0 mi Calm Calm - N/A   Partly Cloudy
9:53 AM 66.0 °F 59.0 °F 78% 30.33 in 10.0 mi Calm Calm - N/A   Clear
10:53 AM 72.0 °F 55.0 °F 55% 30.33 in 10.0 mi NNE 3.5 mph - N/A   Clear
11:53 AM 75.0 °F 55.0 °F 50% 30.32 in 10.0 mi Variable 4.6 mph - N/A   Clear
12:53 PM 75.9 °F 55.0 °F 48% 30.29 in 10.0 mi NNE 5.8 mph - N/A   Scattered Clouds
1:53 PM 75.0 °F 55.0 °F 50% 30.27 in 10.0 mi NE 6.9 mph - N/A   Scattered Clouds
2:53 PM 75.0 °F 55.0 °F 50% 30.26 in 10.0 mi NE 9.2 mph - N/A   Mostly Cloudy
3:53 PM 75.9 °F 57.9 °F 54% 30.26 in 10.0 mi NE 11.5 mph - N/A   Clear
4:53 PM 73.0 °F 59.0 °F 61% 30.28 in 10.0 mi East 15.0 mph - N/A   Partly Cloudy
5:53 PM 69.1 °F 59.0 °F 70% 30.30 in 10.0 mi East 8.1 mph - N/A   Clear
6:53 PM 66.0 °F 59.0 °F 78% 30.31 in 10.0 mi East 5.8 mph - N/A   Clear
7:53 PM 64.0 °F 59.0 °F 84% 30.32 in 10.0 mi East 6.9 mph - N/A   Partly Cloudy
8:53 PM 64.9 °F 60.1 °F 84% 30.33 in 10.0 mi East 5.8 mph - N/A   Mostly Cloudy
9:53 PM 66.0 °F 60.1 °F 81% 30.33 in 10.0 mi East 8.1 mph - N/A   Mostly Cloudy
10:53 PM 66.0 °F 59.0 °F 78% 30.33 in 10.0 mi East 8.1 mph - N/A   Scattered Clouds
11:53 PM 66.0 °F 60.1 °F 81% 30.32 in 10.0 mi East 9.2 mph - N/A   Overcast